DICEM LPPT-LEAS

Flight info

Callsign DICEM
Flight time 2h 57m
Altitude 5000
Route LPPT/20 DCT SRA DCT LPSC DCT PEKOV DCT OVR DCT LEMZ DCT KORAV DCT LEAS/11
Aircraft DA42/L-V/N

Departure

Time 2026-05-08 16:50
Airport Lisbon Humberto Delgado Airport (LPPT)

Arrival

Time 2026-05-08 19:48
Airport Asturias Airport (LEAS)
Time Latitude Longitude Altitude Speed Heading
2026-05-08 16:25 38.78076 -9.13125 341 ft 0 kts 304°
2026-05-08 16:42 38.78073 -9.13130 341 ft 2 kts 149°
2026-05-08 16:42 38.78053 -9.13100 349 ft 7 kts 136°
2026-05-08 16:42 38.78019 -9.13082 341 ft 5 kts 167°
2026-05-08 16:42 38.77988 -9.13070 341 ft 5 kts 169°
2026-05-08 16:43 38.77951 -9.13061 346 ft 6 kts 166°
2026-05-08 16:43 38.77929 -9.13051 341 ft 0 kts 162°
2026-05-08 16:43 38.77860 -9.13030 341 ft 18 kts 169°
2026-05-08 16:43 38.77765 -9.13099 346 ft 10 kts 248°
2026-05-08 16:44 38.77750 -9.13175 345 ft 7 kts 256°
2026-05-08 16:44 38.77748 -9.13186 341 ft 0 kts 249°
2026-05-08 16:45 38.77746 -9.13208 341 ft 9 kts 255°
2026-05-08 16:45 38.77735 -9.13287 345 ft 9 kts 264°
2026-05-08 16:45 38.77764 -9.13344 341 ft 9 kts 336°
2026-05-08 16:45 38.77831 -9.13373 341 ft 11 kts 345°
2026-05-08 16:46 38.77911 -9.13386 341 ft 12 kts 341°
2026-05-08 16:46 38.77998 -9.13410 341 ft 14 kts 353°
2026-05-08 16:46 38.78023 -9.13413 341 ft 10 kts
2026-05-08 16:46 38.78169 -9.13336 340 ft 31 kts 21°
2026-05-08 16:47 38.78366 -9.13241 341 ft 22 kts 23°
2026-05-08 16:47 38.78433 -9.13217 341 ft 3 kts 349°
2026-05-08 16:47 38.78476 -9.13230 340 ft 0 kts 347°
2026-05-08 16:48 38.78503 -9.13240 340 ft 6 kts 333°
2026-05-08 16:48 38.78517 -9.13252 337 ft 0 kts 312°
2026-05-08 16:48 38.78521 -9.13260 338 ft 6 kts 305°
2026-05-08 16:48 38.78533 -9.13334 337 ft 12 kts 248°
2026-05-08 16:49 38.78438 -9.13411 335 ft 28 kts 204°
2026-05-08 16:49 38.78162 -9.13569 340 ft 59 kts 202°
2026-05-08 16:49 38.77721 -9.13810 426 ft 69 kts 199°
2026-05-08 16:49 38.77281 -9.14031 643 ft 71 kts 210°
2026-05-08 16:50 38.77088 -9.14615 969 ft 81 kts 266°
2026-05-08 16:50 38.77240 -9.15348 1248 ft 82 kts 268°
2026-05-08 16:50 38.77347 -9.16106 1451 ft 100 kts 278°
2026-05-08 16:50 38.77873 -9.16886 1504 ft 132 kts 315°
2026-05-08 16:51 38.78529 -9.17758 1486 ft 137 kts 286°
2026-05-08 16:51 38.78885 -9.18868 1603 ft 133 kts 277°
2026-05-08 16:51 38.79182 -9.19986 1726 ft 133 kts 276°
2026-05-08 16:51 38.79478 -9.21111 1855 ft 134 kts 278°
2026-05-08 16:52 38.79773 -9.22223 1977 ft 134 kts 277°
2026-05-08 16:52 38.80078 -9.23376 1993 ft 138 kts 278°
2026-05-08 16:52 38.80391 -9.24557 1988 ft 142 kts 279°
2026-05-08 16:52 38.80716 -9.25772 1999 ft 146 kts 278°
2026-05-08 16:53 38.81360 -9.28205 2005 ft 144 kts 277°
2026-05-08 16:53 38.81669 -9.29404 2013 ft 141 kts 275°
2026-05-08 16:53 38.82000 -9.30619 1995 ft 146 kts 278°
2026-05-08 16:54 38.82334 -9.31839 2002 ft 147 kts 277°
2026-05-08 16:54 38.82678 -9.33084 1998 ft 148 kts 278°
2026-05-08 16:54 38.83022 -9.34319 1991 ft 146 kts 278°
2026-05-08 16:54 38.83369 -9.35542 1993 ft 146 kts 277°
2026-05-08 16:55 38.83713 -9.36771 1994 ft 146 kts 277°
2026-05-08 16:55 38.84048 -9.37971 2114 ft 140 kts 278°
2026-05-08 16:55 38.84460 -9.39098 2236 ft 144 kts 302°
2026-05-08 16:55 38.85341 -9.39728 2379 ft 149 kts 347°
2026-05-08 16:56 38.86365 -9.39902 2543 ft 149 kts 353°
2026-05-08 16:56 38.87404 -9.40038 2694 ft 151 kts 353°
2026-05-08 16:56 38.88442 -9.40159 2845 ft 152 kts 354°
2026-05-08 16:56 38.89507 -9.40281 3004 ft 155 kts 354°
2026-05-08 16:57 38.90589 -9.40410 3150 ft 156 kts 354°
2026-05-08 16:57 38.91669 -9.40539 3288 ft 155 kts 354°
2026-05-08 16:57 38.92728 -9.40682 3451 ft 153 kts 354°
2026-05-08 16:57 38.93814 -9.40839 3467 ft 161 kts 353°
2026-05-08 16:58 38.94942 -9.40987 3481 ft 166 kts 354°
2026-05-08 16:58 38.96103 -9.41131 3480 ft 169 kts 354°
2026-05-08 16:58 38.97278 -9.41279 3478 ft 170 kts 354°
2026-05-08 16:58 38.98456 -9.41431 3478 ft 170 kts 354°
2026-05-08 16:59 38.99623 -9.41602 3484 ft 168 kts 354°
2026-05-08 16:59 39.00791 -9.41773 3476 ft 168 kts 354°
2026-05-08 16:59 39.01950 -9.41945 3479 ft 168 kts 353°
2026-05-08 16:59 39.03114 -9.42110 3474 ft 169 kts 353°
2026-05-08 17:00 39.04286 -9.42268 3477 ft 170 kts 353°
2026-05-08 17:00 39.05451 -9.42425 3479 ft 171 kts 354°
2026-05-08 17:00 39.06641 -9.42507 3479 ft 171 kts 358°
2026-05-08 17:00 39.07836 -9.42562 3478 ft 171 kts 359°
2026-05-08 17:01 39.09021 -9.42612 3476 ft 169 kts 358°
2026-05-08 17:01 39.10194 -9.42647 3474 ft 168 kts 359°
2026-05-08 17:01 39.11364 -9.42679 3472 ft 168 kts 359°
2026-05-08 17:01 39.12539 -9.42710 3472 ft 169 kts 359°
2026-05-08 17:02 39.13717 -9.42752 3473 ft 170 kts 359°
2026-05-08 17:02 39.14886 -9.42797 3472 ft 170 kts 358°
2026-05-08 17:02 39.16069 -9.42837 3473 ft 170 kts 359°
2026-05-08 17:02 39.17248 -9.42840 3472 ft 170 kts
2026-05-08 17:03 39.18427 -9.42685 3472 ft 170 kts
2026-05-08 17:03 39.19605 -9.42505 3472 ft 170 kts
2026-05-08 17:03 39.20775 -9.42321 3471 ft 168 kts
2026-05-08 17:03 39.21934 -9.42138 3472 ft 167 kts
2026-05-08 17:04 39.23070 -9.41958 3472 ft 167 kts
2026-05-08 17:04 39.24239 -9.41777 3471 ft 167 kts
2026-05-08 17:04 39.25379 -9.41601 3472 ft 167 kts
2026-05-08 17:04 39.26531 -9.41423 3473 ft 166 kts
2026-05-08 17:05 39.27674 -9.41245 3472 ft 165 kts
2026-05-08 17:05 39.28817 -9.41067 3473 ft 165 kts
2026-05-08 17:05 39.29988 -9.40889 3464 ft 173 kts
2026-05-08 17:05 39.31200 -9.40705 3463 ft 177 kts
2026-05-08 17:06 39.32429 -9.40515 3466 ft 178 kts
2026-05-08 17:06 39.33661 -9.40322 3465 ft 179 kts
2026-05-08 17:06 39.34886 -9.40068 3463 ft 178 kts 18°
2026-05-08 17:06 39.36072 -9.39594 3470 ft 179 kts 21°
2026-05-08 17:07 39.37257 -9.39085 3465 ft 180 kts 22°
2026-05-08 17:07 39.38443 -9.38573 3466 ft 180 kts 22°
2026-05-08 17:07 39.39621 -9.38058 3462 ft 177 kts 25°
2026-05-08 17:07 39.40730 -9.37416 3462 ft 173 kts 31°
2026-05-08 17:08 39.41798 -9.36714 3466 ft 172 kts 32°
2026-05-08 17:08 39.42852 -9.36022 3465 ft 173 kts 32°
2026-05-08 17:08 39.43924 -9.35318 3469 ft 173 kts 31°
2026-05-08 17:08 39.44993 -9.34612 3466 ft 172 kts 32°
2026-05-08 17:09 39.46058 -9.33904 3467 ft 172 kts 32°
2026-05-08 17:09 39.47127 -9.33199 3469 ft 172 kts 32°
2026-05-08 17:09 39.48199 -9.32495 3470 ft 173 kts 32°
2026-05-08 17:09 39.49271 -9.31790 3466 ft 173 kts 32°
2026-05-08 17:10 39.50344 -9.31090 3464 ft 172 kts 32°
2026-05-08 17:10 39.51415 -9.30395 3465 ft 172 kts 32°
2026-05-08 17:10 39.52487 -9.29693 3464 ft 172 kts 32°
2026-05-08 17:10 39.53555 -9.28989 3464 ft 172 kts 32°
2026-05-08 17:11 39.54621 -9.28286 3463 ft 172 kts 32°
2026-05-08 17:11 39.55691 -9.27587 3463 ft 172 kts 32°
2026-05-08 17:11 39.56761 -9.26888 3463 ft 172 kts 32°
2026-05-08 17:11 39.57830 -9.26187 3465 ft 172 kts 32°
2026-05-08 17:12 39.58897 -9.25483 3463 ft 172 kts 32°
2026-05-08 17:12 39.59963 -9.24778 3465 ft 172 kts 32°
2026-05-08 17:12 39.61014 -9.24083 3466 ft 172 kts 32°
2026-05-08 17:12 39.62096 -9.23413 3464 ft 174 kts 24°
2026-05-08 17:13 39.63264 -9.22967 3471 ft 175 kts 18°
2026-05-08 17:13 39.64439 -9.22558 3468 ft 174 kts 18°
2026-05-08 17:13 39.65607 -9.22152 3470 ft 174 kts 18°
2026-05-08 17:13 39.66779 -9.21751 3468 ft 174 kts 17°
2026-05-08 17:14 39.67938 -9.21337 3467 ft 172 kts 18°
2026-05-08 17:14 39.69091 -9.20923 3470 ft 171 kts 18°
2026-05-08 17:14 39.70240 -9.20516 3466 ft 171 kts 18°
2026-05-08 17:14 39.71386 -9.20114 3468 ft 171 kts 18°
2026-05-08 17:15 39.72534 -9.19708 3466 ft 171 kts 18°
2026-05-08 17:15 39.73663 -9.19308 3467 ft 170 kts 18°
2026-05-08 17:15 39.74810 -9.18906 3468 ft 171 kts 18°
2026-05-08 17:15 39.75974 -9.18598 3457 ft 172 kts 358°
2026-05-08 17:16 39.77161 -9.18783 3470 ft 171 kts 355°
2026-05-08 17:16 39.78337 -9.18654 3470 ft 169 kts 17°
2026-05-08 17:16 39.79447 -9.18155 3473 ft 169 kts 24°
2026-05-08 17:16 39.80540 -9.17597 3472 ft 169 kts 25°
2026-05-08 17:17 39.81700 -9.17318 3471 ft 171 kts
2026-05-08 17:17 39.82893 -9.17312 3469 ft 171 kts
2026-05-08 17:17 39.84085 -9.17294 3472 ft 172 kts
2026-05-08 17:17 39.85272 -9.17243 3474 ft 173 kts
2026-05-08 17:18 39.86485 -9.17181 3477 ft 175 kts
2026-05-08 17:18 39.87709 -9.17117 3476 ft 177 kts
2026-05-08 17:18 39.88943 -9.17054 3472 ft 177 kts
2026-05-08 17:18 39.90173 -9.16992 3470 ft 176 kts
2026-05-08 17:19 39.91389 -9.16930 3471 ft 174 kts
2026-05-08 17:19 39.92594 -9.16869 3471 ft 172 kts
2026-05-08 17:19 39.93789 -9.16808 3471 ft 172 kts
2026-05-08 17:19 39.94982 -9.16747 3471 ft 171 kts
2026-05-08 17:20 39.96174 -9.16686 3468 ft 171 kts
2026-05-08 17:20 39.97361 -9.16626 3468 ft 170 kts
2026-05-08 17:20 39.98542 -9.16565 3469 ft 170 kts
2026-05-08 17:20 39.99725 -9.16504 3469 ft 170 kts
2026-05-08 17:21 40.00891 -9.16445 3472 ft 170 kts
2026-05-08 17:21 40.02070 -9.16385 3471 ft 170 kts
2026-05-08 17:21 40.03252 -9.16325 3475 ft 170 kts
2026-05-08 17:21 40.04437 -9.16265 3474 ft 170 kts
2026-05-08 17:22 40.05619 -9.16204 3472 ft 170 kts
2026-05-08 17:22 40.06801 -9.16144 3472 ft 170 kts
2026-05-08 17:22 40.07986 -9.16083 3471 ft 171 kts
2026-05-08 17:22 40.09176 -9.16023 3471 ft 171 kts
2026-05-08 17:23 40.10367 -9.15962 3471 ft 171 kts
2026-05-08 17:23 40.11557 -9.15901 3473 ft 171 kts
2026-05-08 17:23 40.12729 -9.15841 3471 ft 171 kts
2026-05-08 17:23 40.13930 -9.15779 3472 ft 171 kts
2026-05-08 17:24 40.15103 -9.15719 3472 ft 171 kts
2026-05-08 17:24 40.16288 -9.15658 3473 ft 170 kts
2026-05-08 17:24 40.17475 -9.15597 3471 ft 170 kts
2026-05-08 17:24 40.18662 -9.15537 3472 ft 171 kts
2026-05-08 17:25 40.19848 -9.15476 3473 ft 171 kts
2026-05-08 17:25 40.21039 -9.15415 3478 ft 171 kts
2026-05-08 17:25 40.22226 -9.15354 3475 ft 171 kts
2026-05-08 17:25 40.23418 -9.15292 3474 ft 171 kts
2026-05-08 17:26 40.24610 -9.15231 3472 ft 171 kts
2026-05-08 17:26 40.25799 -9.15170 3473 ft 171 kts
2026-05-08 17:26 40.26990 -9.15109 3474 ft 171 kts
2026-05-08 17:26 40.28168 -9.15048 3472 ft 172 kts
2026-05-08 17:27 40.29361 -9.14987 3475 ft 172 kts
2026-05-08 17:27 40.30555 -9.14925 3474 ft 172 kts
2026-05-08 17:27 40.31750 -9.14864 3475 ft 172 kts
2026-05-08 17:27 40.32946 -9.14802 3478 ft 172 kts
2026-05-08 17:28 40.34143 -9.14740 3477 ft 172 kts
2026-05-08 17:28 40.35338 -9.14679 3476 ft 171 kts
2026-05-08 17:28 40.36532 -9.14618 3477 ft 171 kts
2026-05-08 17:28 40.37726 -9.14556 3477 ft 171 kts
2026-05-08 17:29 40.38905 -9.14495 3472 ft 171 kts
2026-05-08 17:29 40.40095 -9.14433 3473 ft 171 kts
2026-05-08 17:29 40.41283 -9.14372 3472 ft 171 kts
2026-05-08 17:29 40.42473 -9.14311 3471 ft 171 kts
2026-05-08 17:30 40.43664 -9.14250 3473 ft 171 kts
2026-05-08 17:30 40.44854 -9.14188 3474 ft 171 kts
2026-05-08 17:30 40.46044 -9.14126 3474 ft 171 kts
2026-05-08 17:30 40.47234 -9.14064 3477 ft 171 kts
2026-05-08 17:31 40.48428 -9.14002 3477 ft 171 kts
2026-05-08 17:31 40.49221 -9.13962 3478 ft 172 kts
2026-05-08 17:31 40.50804 -9.13880 3477 ft 172 kts
2026-05-08 17:31 40.51997 -9.13819 3477 ft 171 kts
2026-05-08 17:32 40.53190 -9.13757 3473 ft 171 kts
2026-05-08 17:32 40.53993 -9.13715 3471 ft 171 kts
2026-05-08 17:32 40.55183 -9.13653 3478 ft 171 kts
2026-05-08 17:32 40.56372 -9.13591 3471 ft 171 kts
2026-05-08 17:33 40.57563 -9.13530 3477 ft 171 kts
2026-05-08 17:33 40.58752 -9.13468 3476 ft 171 kts
2026-05-08 17:33 40.59927 -9.13407 3477 ft 171 kts
2026-05-08 17:33 40.61117 -9.13345 3478 ft 171 kts
2026-05-08 17:34 40.62310 -9.13282 3479 ft 171 kts
2026-05-08 17:34 40.63497 -9.13220 3475 ft 170 kts
2026-05-08 17:34 40.64678 -9.13159 3476 ft 170 kts
2026-05-08 17:34 40.65861 -9.13098 3477 ft 170 kts
2026-05-08 17:35 40.67035 -9.13037 3481 ft 170 kts
2026-05-08 17:35 40.68219 -9.12975 3479 ft 170 kts
2026-05-08 17:35 40.69403 -9.12913 3479 ft 170 kts
2026-05-08 17:35 40.70586 -9.12852 3478 ft 170 kts
2026-05-08 17:36 40.71773 -9.12790 3479 ft 170 kts
2026-05-08 17:36 40.72958 -9.12729 3480 ft 171 kts
2026-05-08 17:36 40.74146 -9.12667 3479 ft 171 kts
2026-05-08 17:36 40.75332 -9.12605 3480 ft 170 kts
2026-05-08 17:37 40.76476 -9.12545 3597 ft 163 kts
2026-05-08 17:37 40.77595 -9.12488 3722 ft 159 kts
2026-05-08 17:37 40.78695 -9.12431 3849 ft 157 kts
2026-05-08 17:37 40.79787 -9.12373 3975 ft 156 kts
2026-05-08 17:38 40.80876 -9.12316 4102 ft 156 kts
2026-05-08 17:38 40.81959 -9.12260 4231 ft 155 kts
2026-05-08 17:38 40.83035 -9.12203 4359 ft 154 kts
2026-05-08 17:38 40.84092 -9.12148 4476 ft 154 kts
2026-05-08 17:39 40.85197 -9.12089 4479 ft 163 kts
2026-05-08 17:39 40.86349 -9.12028 4480 ft 168 kts
2026-05-08 17:39 40.87529 -9.11966 4480 ft 171 kts
2026-05-08 17:39 40.88720 -9.11904 4481 ft 172 kts
2026-05-08 17:40 40.89927 -9.11841 4485 ft 174 kts
2026-05-08 17:40 40.91137 -9.11778 4488 ft 174 kts
2026-05-08 17:40 40.92336 -9.11715 4488 ft 175 kts
2026-05-08 17:40 40.93550 -9.11651 4488 ft 175 kts
2026-05-08 17:41 40.94765 -9.11587 4488 ft 175 kts
2026-05-08 17:41 40.95981 -9.11523 4488 ft 175 kts
2026-05-08 17:41 40.97199 -9.11460 4489 ft 175 kts
2026-05-08 17:41 40.98419 -9.11396 4489 ft 176 kts
2026-05-08 17:42 40.99638 -9.11331 4484 ft 175 kts
2026-05-08 17:42 41.00853 -9.11267 4484 ft 174 kts
2026-05-08 17:42 41.02063 -9.11204 4484 ft 174 kts
2026-05-08 17:42 41.03273 -9.11141 4485 ft 174 kts
2026-05-08 17:43 41.04483 -9.11076 4488 ft 174 kts
2026-05-08 17:43 41.05693 -9.11013 4487 ft 174 kts
2026-05-08 17:43 41.06902 -9.10949 4488 ft 173 kts
2026-05-08 17:43 41.08108 -9.10886 4490 ft 174 kts
2026-05-08 17:44 41.09316 -9.10822 4493 ft 173 kts
2026-05-08 17:44 41.10521 -9.10759 4493 ft 173 kts
2026-05-08 17:44 41.11728 -9.10696 4494 ft 173 kts
2026-05-08 17:44 41.12923 -9.10633 4494 ft 173 kts
2026-05-08 17:45 41.14128 -9.10569 4490 ft 174 kts
2026-05-08 17:45 41.15334 -9.10505 4490 ft 173 kts
2026-05-08 17:45 41.16537 -9.10441 4491 ft 173 kts
2026-05-08 17:45 41.17736 -9.10377 4492 ft 173 kts
2026-05-08 17:46 41.18938 -9.10314 4492 ft 173 kts
2026-05-08 17:46 41.20142 -9.10251 4492 ft 173 kts
2026-05-08 17:46 41.21346 -9.10187 4492 ft 173 kts
2026-05-08 17:46 41.22553 -9.10123 4493 ft 174 kts
2026-05-08 17:47 41.23765 -9.10059 4493 ft 174 kts
2026-05-08 17:47 41.24981 -9.09994 4496 ft 174 kts
2026-05-08 17:47 41.26192 -9.09930 4495 ft 174 kts
2026-05-08 17:47 41.26995 -9.09888 4496 ft 174 kts
2026-05-08 17:48 41.28602 -9.09803 4493 ft 175 kts
2026-05-08 17:48 41.29816 -9.09738 4492 ft 174 kts
2026-05-08 17:48 41.31031 -9.09674 4492 ft 174 kts
2026-05-08 17:48 41.32243 -9.09610 4493 ft 174 kts
2026-05-08 17:49 41.33455 -9.09545 4496 ft 175 kts
2026-05-08 17:49 41.34670 -9.09481 4495 ft 175 kts
2026-05-08 17:49 41.35890 -9.09416 4494 ft 175 kts
2026-05-08 17:49 41.37106 -9.09352 4494 ft 175 kts
2026-05-08 17:50 41.38321 -9.09288 4493 ft 175 kts
2026-05-08 17:50 41.39536 -9.09223 4493 ft 175 kts
2026-05-08 17:50 41.40756 -9.09158 4493 ft 175 kts
2026-05-08 17:50 41.41975 -9.09092 4493 ft 175 kts
2026-05-08 17:51 41.43194 -9.09028 4485 ft 175 kts
2026-05-08 17:51 41.44388 -9.08964 4481 ft 173 kts
2026-05-08 17:51 41.45583 -9.08900 4481 ft 171 kts
2026-05-08 17:51 41.46703 -9.08467 4492 ft 167 kts 26°
2026-05-08 17:52 41.47763 -9.07841 4488 ft 166 kts 27°
2026-05-08 17:52 41.48818 -9.07205 4488 ft 166 kts 27°
2026-05-08 17:52 41.50927 -9.05929 4494 ft 166 kts 28°
2026-05-08 17:53 41.51979 -9.05290 4494 ft 166 kts 28°
2026-05-08 17:53 41.53029 -9.04653 4493 ft 166 kts 28°
2026-05-08 17:53 41.54070 -9.04022 4493 ft 166 kts 28°
2026-05-08 17:53 41.55119 -9.03384 4493 ft 166 kts 28°
2026-05-08 17:54 41.56173 -9.02741 4497 ft 166 kts 28°
2026-05-08 17:54 41.57225 -9.02101 4497 ft 166 kts 28°
2026-05-08 17:54 41.58276 -9.01462 4496 ft 166 kts 27°
2026-05-08 17:54 41.59329 -9.00818 4497 ft 166 kts 27°
2026-05-08 17:55 41.60377 -9.00176 4494 ft 166 kts 28°
2026-05-08 17:55 41.61427 -8.99535 4493 ft 166 kts 28°
2026-05-08 17:55 41.62475 -8.98895 4489 ft 166 kts 28°
2026-05-08 17:55 41.63546 -8.98239 4339 ft 172 kts 28°
2026-05-08 17:56 41.64634 -8.97560 4185 ft 177 kts 27°
2026-05-08 17:56 41.65751 -8.96849 4031 ft 179 kts 28°
2026-05-08 17:56 41.66878 -8.96133 3877 ft 179 kts 28°
2026-05-08 17:56 41.68009 -8.95420 3724 ft 179 kts 27°
2026-05-08 17:57 41.69140 -8.94702 3573 ft 179 kts 28°
2026-05-08 17:57 41.70261 -8.93995 3494 ft 175 kts 28°
2026-05-08 17:57 41.71342 -8.93319 3495 ft 168 kts 27°
2026-05-08 17:57 41.72391 -8.92664 3493 ft 165 kts 28°
2026-05-08 17:58 41.73425 -8.92026 3494 ft 162 kts 28°
2026-05-08 17:58 41.74324 -8.91199 3492 ft 157 kts 46°
2026-05-08 17:58 41.75109 -8.90192 3493 ft 156 kts 49°
2026-05-08 17:58 41.75885 -8.89176 3494 ft 155 kts 48°
2026-05-08 17:59 41.76655 -8.88162 3494 ft 155 kts 49°
2026-05-08 17:59 41.77435 -8.87160 3494 ft 157 kts 39°
2026-05-08 17:59 41.78491 -8.86706 3504 ft 163 kts
2026-05-08 17:59 41.79622 -8.86533 3493 ft 163 kts
2026-05-08 18:00 41.80741 -8.86375 3493 ft 161 kts
2026-05-08 18:00 41.83002 -8.86079 3490 ft 163 kts
2026-05-08 18:00 41.84120 -8.86107 3497 ft 159 kts 355°
2026-05-08 18:01 41.85218 -8.86240 3494 ft 163 kts 355°
2026-05-08 18:01 41.86337 -8.86377 3490 ft 160 kts 355°
2026-05-08 18:01 41.87450 -8.86507 3494 ft 161 kts 355°
2026-05-08 18:01 41.88571 -8.86632 3498 ft 162 kts 355°
2026-05-08 18:02 41.89701 -8.86751 3444 ft 164 kts 354°
2026-05-08 18:02 41.90471 -8.86830 3375 ft 166 kts 355°
2026-05-08 18:02 41.92029 -8.87012 3205 ft 172 kts 354°
2026-05-08 18:02 41.93225 -8.87140 3072 ft 170 kts 354°
2026-05-08 18:03 41.94402 -8.87261 2954 ft 170 kts 355°
2026-05-08 18:03 41.95588 -8.87400 2845 ft 172 kts 356°
2026-05-08 18:03 41.96781 -8.87510 2799 ft 166 kts 354°
2026-05-08 18:03 41.97906 -8.87651 2792 ft 160 kts 354°
2026-05-08 18:04 41.98976 -8.87786 2797 ft 154 kts 354°
2026-05-08 18:04 42.00042 -8.87922 2801 ft 153 kts 354°
2026-05-08 18:04 42.01105 -8.88052 2794 ft 153 kts 355°
2026-05-08 18:04 42.02168 -8.88179 2790 ft 155 kts 355°
2026-05-08 18:05 42.03230 -8.88309 2803 ft 153 kts 355°
2026-05-08 18:05 42.04296 -8.88452 2800 ft 154 kts 355°
2026-05-08 18:05 42.05357 -8.88587 2806 ft 156 kts 354°
2026-05-08 18:05 42.06443 -8.88719 2788 ft 156 kts 355°
2026-05-08 18:06 42.07516 -8.88846 2787 ft 153 kts 355°
2026-05-08 18:06 42.08569 -8.88959 2798 ft 153 kts 355°
2026-05-08 18:06 42.09632 -8.89081 2784 ft 151 kts 355°
2026-05-08 18:06 42.10664 -8.89206 2805 ft 149 kts 354°
2026-05-08 18:07 42.11688 -8.89323 2807 ft 146 kts 358°
2026-05-08 18:07 42.12685 -8.89131 2807 ft 145 kts 19°
2026-05-08 18:07 42.13631 -8.88654 2805 ft 146 kts 25°
2026-05-08 18:07 42.14566 -8.88134 2802 ft 145 kts 25°
2026-05-08 18:08 42.15489 -8.87623 2806 ft 145 kts 25°
2026-05-08 18:08 42.16427 -8.87104 2770 ft 148 kts 25°
2026-05-08 18:08 42.17393 -8.86565 2696 ft 152 kts 25°
2026-05-08 18:08 42.18353 -8.85957 2620 ft 153 kts 35°
2026-05-08 18:09 42.19218 -8.85118 2558 ft 153 kts 39°
2026-05-08 18:09 42.20038 -8.84198 2522 ft 151 kts 49°
2026-05-08 18:09 42.20740 -8.83166 2521 ft 148 kts 52°
2026-05-08 18:09 42.21420 -8.82143 2520 ft 145 kts 52°
2026-05-08 18:10 42.22093 -8.81130 2523 ft 145 kts 51°
2026-05-08 18:10 42.22751 -8.80125 2519 ft 144 kts 52°
2026-05-08 18:10 42.23415 -8.79121 2523 ft 143 kts 51°
2026-05-08 18:10 42.24081 -8.78111 2520 ft 144 kts 52°
2026-05-08 18:11 42.24746 -8.77102 2524 ft 144 kts 52°
2026-05-08 18:11 42.25409 -8.76094 2524 ft 143 kts 52°
2026-05-08 18:11 42.26069 -8.75097 2523 ft 142 kts 52°
2026-05-08 18:11 42.26731 -8.74108 2525 ft 142 kts 51°
2026-05-08 18:12 42.27390 -8.73115 2519 ft 142 kts 52°
2026-05-08 18:12 42.28045 -8.72125 2520 ft 140 kts 52°
2026-05-08 18:12 42.28689 -8.71133 2526 ft 140 kts 51°
2026-05-08 18:12 42.29306 -8.70128 2522 ft 142 kts 51°
2026-05-08 18:13 42.29944 -8.69105 2520 ft 143 kts 47°
2026-05-08 18:13 42.30698 -8.68211 2522 ft 144 kts 41°
2026-05-08 18:13 42.31468 -8.67351 2522 ft 143 kts 41°
2026-05-08 18:13 42.32228 -8.66504 2519 ft 141 kts 41°
2026-05-08 18:14 42.32990 -8.65673 2515 ft 141 kts 34°
2026-05-08 18:14 42.33936 -8.65432 2523 ft 142 kts 348°
2026-05-08 18:14 42.34847 -8.65939 2527 ft 143 kts 333°
2026-05-08 18:14 42.35740 -8.66555 2529 ft 146 kts 332°
2026-05-08 18:15 42.36644 -8.67185 2514 ft 145 kts 332°
2026-05-08 18:15 42.37538 -8.67802 2516 ft 143 kts 331°
2026-05-08 18:15 42.38416 -8.68409 2514 ft 143 kts 332°
2026-05-08 18:15 42.39302 -8.69025 2512 ft 143 kts 332°
2026-05-08 18:16 42.40187 -8.69639 2510 ft 143 kts 332°
2026-05-08 18:16 42.41069 -8.70251 2510 ft 142 kts 332°
2026-05-08 18:16 42.41948 -8.70862 2509 ft 142 kts 332°
2026-05-08 18:16 42.42824 -8.71467 2509 ft 141 kts 332°
2026-05-08 18:17 42.43703 -8.72081 2521 ft 145 kts 332°
2026-05-08 18:17 42.44614 -8.72711 2521 ft 148 kts 332°
2026-05-08 18:17 42.45535 -8.73355 2516 ft 149 kts 332°
2026-05-08 18:17 42.46451 -8.73986 2502 ft 145 kts 332°
2026-05-08 18:18 42.47351 -8.74592 2512 ft 145 kts 332°
2026-05-08 18:18 42.48250 -8.75197 2511 ft 146 kts 332°
2026-05-08 18:18 42.49160 -8.75814 2517 ft 147 kts 332°
2026-05-08 18:18 42.50081 -8.76450 2520 ft 150 kts 332°
2026-05-08 18:19 42.51018 -8.77103 2518 ft 152 kts 332°
2026-05-08 18:19 42.51964 -8.77760 2519 ft 154 kts 332°
2026-05-08 18:19 42.52919 -8.78421 2511 ft 153 kts 332°
2026-05-08 18:19 42.53871 -8.79076 2512 ft 153 kts 332°
2026-05-08 18:20 42.54815 -8.79727 2511 ft 152 kts 332°
2026-05-08 18:20 42.55441 -8.80158 2512 ft 152 kts 331°
2026-05-08 18:20 42.56391 -8.80803 2513 ft 153 kts 332°
2026-05-08 18:20 42.57349 -8.81450 2511 ft 154 kts 332°
2026-05-08 18:21 42.58304 -8.82099 2508 ft 153 kts 332°
2026-05-08 18:21 42.59258 -8.82754 2508 ft 153 kts 332°
2026-05-08 18:21 42.60212 -8.83402 2509 ft 153 kts 332°
2026-05-08 18:21 42.61156 -8.84042 2508 ft 153 kts 332°
2026-05-08 18:22 42.62111 -8.84693 2508 ft 153 kts 332°
2026-05-08 18:22 42.63067 -8.85348 2509 ft 154 kts 332°
2026-05-08 18:22 42.64030 -8.86006 2510 ft 155 kts 332°
2026-05-08 18:22 42.64988 -8.86674 2510 ft 155 kts 328°
2026-05-08 18:23 42.65910 -8.87442 2510 ft 155 kts 326°
2026-05-08 18:23 42.66827 -8.88226 2507 ft 155 kts 326°
2026-05-08 18:23 42.67739 -8.89011 2512 ft 155 kts 326°
2026-05-08 18:23 42.68637 -8.89784 2509 ft 155 kts 325°
2026-05-08 18:24 42.69553 -8.90566 2508 ft 155 kts 326°
2026-05-08 18:24 42.70465 -8.91350 2512 ft 156 kts 326°
2026-05-08 18:24 42.71387 -8.92147 2503 ft 157 kts 326°
2026-05-08 18:24 42.72312 -8.92944 2513 ft 155 kts 324°
2026-05-08 18:25 42.73232 -8.93730 2498 ft 156 kts 326°
2026-05-08 18:25 42.74135 -8.94490 2510 ft 150 kts 325°
2026-05-08 18:25 42.75033 -8.95236 2513 ft 152 kts 326°
2026-05-08 18:25 42.75932 -8.95997 2512 ft 152 kts 326°
2026-05-08 18:26 42.76827 -8.96761 2550 ft 150 kts 326°
2026-05-08 18:26 42.77696 -8.97493 2674 ft 144 kts 326°
2026-05-08 18:26 42.78530 -8.98196 2801 ft 139 kts 325°
2026-05-08 18:26 42.79357 -8.98881 2925 ft 138 kts 326°
2026-05-08 18:27 42.80183 -8.99563 3058 ft 139 kts 326°
2026-05-08 18:27 42.80735 -9.00019 3140 ft 140 kts 326°
2026-05-08 18:27 42.81815 -9.00998 3305 ft 140 kts 327°
2026-05-08 18:27 42.82738 -9.01390 3435 ft 141 kts 355°
2026-05-08 18:28 42.83727 -9.01391 3503 ft 146 kts
2026-05-08 18:28 42.84764 -9.01328 3502 ft 151 kts
2026-05-08 18:28 42.85817 -9.01262 3505 ft 155 kts
2026-05-08 18:28 42.86910 -9.01199 3504 ft 158 kts
2026-05-08 18:29 42.88015 -9.01137 3504 ft 159 kts
2026-05-08 18:29 42.89131 -9.01074 3509 ft 161 kts
2026-05-08 18:29 42.90258 -9.01011 3508 ft 162 kts
2026-05-08 18:29 42.91388 -9.00948 3506 ft 162 kts
2026-05-08 18:30 42.92518 -9.00887 3505 ft 163 kts
2026-05-08 18:30 42.93655 -9.00822 3506 ft 163 kts
2026-05-08 18:30 42.94795 -9.00759 3507 ft 164 kts
2026-05-08 18:30 42.95919 -9.00697 3504 ft 163 kts
2026-05-08 18:31 42.97059 -9.00634 3502 ft 165 kts
2026-05-08 18:31 42.98163 -9.00313 3503 ft 160 kts 27°
2026-05-08 18:31 42.99036 -8.99405 3470 ft 160 kts 53°
2026-05-08 18:31 42.99754 -8.98226 3371 ft 161 kts 55°
2026-05-08 18:32 43.00462 -8.97036 3275 ft 161 kts 54°
2026-05-08 18:32 43.01167 -8.95850 3173 ft 161 kts 55°
2026-05-08 18:32 43.01873 -8.94665 3074 ft 161 kts 54°
2026-05-08 18:32 43.02575 -8.93491 3019 ft 156 kts 55°
2026-05-08 18:33 43.03256 -8.92354 3009 ft 154 kts 55°
2026-05-08 18:33 43.03922 -8.91238 3004 ft 150 kts 55°
2026-05-08 18:33 43.04590 -8.90117 2895 ft 153 kts 55°
2026-05-08 18:33 43.05265 -8.88986 2796 ft 154 kts 53°
2026-05-08 18:34 43.05950 -8.87837 2708 ft 158 kts 55°
2026-05-08 18:34 43.06635 -8.86685 2595 ft 157 kts 54°
2026-05-08 18:34 43.07329 -8.85524 2510 ft 158 kts 53°
2026-05-08 18:34 43.08013 -8.84379 2511 ft 154 kts 54°
2026-05-08 18:35 43.08681 -8.83253 2513 ft 151 kts 54°
2026-05-08 18:35 43.09339 -8.82147 2519 ft 149 kts 54°
2026-05-08 18:35 43.09997 -8.81045 2517 ft 151 kts 54°
2026-05-08 18:35 43.10655 -8.79940 2511 ft 148 kts 54°
2026-05-08 18:36 43.11307 -8.78846 2517 ft 149 kts 56°
2026-05-08 18:36 43.11958 -8.77746 2517 ft 149 kts 54°
2026-05-08 18:36 43.12607 -8.76653 2515 ft 148 kts 55°
2026-05-08 18:36 43.13250 -8.75573 2509 ft 146 kts 56°
2026-05-08 18:37 43.13887 -8.74498 2515 ft 145 kts 54°
2026-05-08 18:37 43.14526 -8.73419 2509 ft 146 kts 54°
2026-05-08 18:37 43.15159 -8.72352 2507 ft 143 kts 54°
2026-05-08 18:37 43.15793 -8.71286 2507 ft 146 kts 53°
2026-05-08 18:38 43.16437 -8.70200 2509 ft 151 kts 53°
2026-05-08 18:38 43.17120 -8.69046 2507 ft 157 kts 54°
2026-05-08 18:38 43.17801 -8.67896 2511 ft 158 kts 53°
2026-05-08 18:38 43.18500 -8.66716 2513 ft 160 kts 52°
2026-05-08 18:39 43.19202 -8.65531 2512 ft 159 kts 53°
2026-05-08 18:39 43.19902 -8.64346 2511 ft 160 kts 53°
2026-05-08 18:39 43.20602 -8.63163 2513 ft 159 kts 53°
2026-05-08 18:39 43.21295 -8.61991 2512 ft 158 kts 53°
2026-05-08 18:40 43.21994 -8.60808 2401 ft 161 kts 53°
2026-05-08 18:40 43.22698 -8.59616 2254 ft 162 kts 54°
2026-05-08 18:40 43.23409 -8.58412 2099 ft 163 kts 53°
2026-05-08 18:40 43.24114 -8.57217 2025 ft 158 kts 53°
2026-05-08 18:41 43.24731 -8.56010 2012 ft 152 kts 72°
2026-05-08 18:41 43.24868 -8.54630 2010 ft 142 kts 98°
2026-05-08 18:41 43.24760 -8.53304 2024 ft 140 kts 101°
2026-05-08 18:41 43.24504 -8.52045 2019 ft 135 kts 117°
2026-05-08 18:42 43.24095 -8.50908 2026 ft 133 kts 122°
2026-05-08 18:42 43.23593 -8.49850 2028 ft 135 kts 127°
2026-05-08 18:42 43.23071 -8.48786 2006 ft 131 kts 128°
2026-05-08 18:42 43.22570 -8.47796 2020 ft 125 kts 134°
2026-05-08 18:43 43.21968 -8.47000 2026 ft 116 kts 140°
2026-05-08 18:43 43.21280 -8.46491 2016 ft 113 kts 176°
2026-05-08 18:43 43.20497 -8.46683 2010 ft 116 kts 195°
2026-05-08 18:43 43.19738 -8.47078 2009 ft 120 kts 216°
2026-05-08 18:44 43.19349 -8.48064 2028 ft 123 kts 262°
2026-05-08 18:44 43.19617 -8.49178 2115 ft 124 kts 310°
2026-05-08 18:44 43.20342 -8.49681 2362 ft 113 kts 354°
2026-05-08 18:44 43.21053 -8.49481 2611 ft 101 kts 23°
2026-05-08 18:45 43.21685 -8.49130 2857 ft 95 kts 24°
2026-05-08 18:45 43.22317 -8.48776 3125 ft 104 kts 24°
2026-05-08 18:45 43.23021 -8.48376 3392 ft 114 kts 25°
2026-05-08 18:45 43.23800 -8.47922 3527 ft 135 kts 25°
2026-05-08 18:46 43.24741 -8.47368 3530 ft 157 kts 25°
2026-05-08 18:46 43.25789 -8.46740 3523 ft 169 kts 24°
2026-05-08 18:46 43.26884 -8.46084 3528 ft 174 kts 24°
2026-05-08 18:46 43.27988 -8.45417 3525 ft 177 kts 25°
2026-05-08 18:47 43.29121 -8.44736 3525 ft 179 kts 25°
2026-05-08 18:47 43.30263 -8.44052 3522 ft 180 kts 25°
2026-05-08 18:47 43.31401 -8.43387 3528 ft 174 kts 24°
2026-05-08 18:47 43.32476 -8.42669 3526 ft 170 kts 33°
2026-05-08 18:48 43.33334 -8.41591 3527 ft 166 kts 51°
2026-05-08 18:48 43.34060 -8.40363 3530 ft 165 kts 54°
2026-05-08 18:48 43.34770 -8.39121 3528 ft 165 kts 53°
2026-05-08 18:48 43.35484 -8.37888 3530 ft 165 kts 53°
2026-05-08 18:49 43.36203 -8.36660 3527 ft 165 kts 53°
2026-05-08 18:49 43.36922 -8.35433 3527 ft 165 kts 53°
2026-05-08 18:49 43.37641 -8.34206 3522 ft 165 kts 53°
2026-05-08 18:49 43.38359 -8.32981 3522 ft 164 kts 53°
2026-05-08 18:50 43.39075 -8.31755 3520 ft 164 kts 53°
2026-05-08 18:50 43.39792 -8.30531 3520 ft 164 kts 53°
2026-05-08 18:50 43.40504 -8.29313 3521 ft 163 kts 53°
2026-05-08 18:50 43.41215 -8.28096 3521 ft 163 kts 53°
2026-05-08 18:51 43.41926 -8.26879 3519 ft 163 kts 53°
2026-05-08 18:51 43.42637 -8.25662 3522 ft 164 kts 53°
2026-05-08 18:51 43.43350 -8.24439 3519 ft 164 kts 53°
2026-05-08 18:51 43.44066 -8.23211 3522 ft 164 kts 53°
2026-05-08 18:52 43.44774 -8.21998 3520 ft 165 kts 52°
2026-05-08 18:52 43.45492 -8.20768 3521 ft 165 kts 53°
2026-05-08 18:52 43.46210 -8.19536 3520 ft 165 kts 53°
2026-05-08 18:52 43.46927 -8.18304 3522 ft 165 kts 53°
2026-05-08 18:53 43.47643 -8.17073 3522 ft 164 kts 53°
2026-05-08 18:53 43.48353 -8.15852 3521 ft 163 kts 53°
2026-05-08 18:53 43.49056 -8.14643 3522 ft 163 kts 53°
2026-05-08 18:53 43.49768 -8.13418 3522 ft 164 kts 52°
2026-05-08 18:54 43.50482 -8.12192 3524 ft 164 kts 53°
2026-05-08 18:54 43.51197 -8.10964 3523 ft 164 kts 53°
2026-05-08 18:54 43.51911 -8.09733 3526 ft 164 kts 53°
2026-05-08 18:54 43.52626 -8.08499 3526 ft 165 kts 53°
2026-05-08 18:55 43.53847 -8.05894 3526 ft 161 kts 82°
2026-05-08 18:55 43.53966 -8.04366 3532 ft 160 kts 88°
2026-05-08 18:55 43.54040 -8.02843 3539 ft 159 kts 89°
2026-05-08 18:56 43.54112 -8.01316 3538 ft 160 kts 89°
2026-05-08 18:56 43.54182 -7.99786 3531 ft 159 kts 89°
2026-05-08 18:56 43.54249 -7.98264 3539 ft 159 kts 89°
2026-05-08 18:56 43.54314 -7.96758 3531 ft 158 kts 89°
2026-05-08 18:57 43.54381 -7.95251 3531 ft 157 kts 89°
2026-05-08 18:57 43.54422 -7.94238 3530 ft 157 kts 89°
2026-05-08 18:57 43.54509 -7.92245 3535 ft 158 kts 89°
2026-05-08 18:57 43.54572 -7.90726 3533 ft 159 kts 89°
2026-05-08 18:58 43.54635 -7.89204 3545 ft 160 kts 89°
2026-05-08 18:58 43.54703 -7.87673 3540 ft 159 kts 89°
2026-05-08 18:58 43.54768 -7.86145 3538 ft 160 kts 89°
2026-05-08 18:58 43.54834 -7.84620 3541 ft 159 kts 89°
2026-05-08 18:59 43.54898 -7.83117 3538 ft 159 kts 91°
2026-05-08 18:59 43.55191 -7.81661 3530 ft 163 kts 56°
2026-05-08 18:59 43.56070 -7.80677 3544 ft 165 kts 33°
2026-05-08 18:59 43.57059 -7.79868 3540 ft 165 kts 31°
2026-05-08 19:00 43.57733 -7.79330 3539 ft 165 kts 31°
2026-05-08 19:00 43.59052 -7.78278 3539 ft 166 kts 31°
2026-05-08 19:00 43.60049 -7.77484 3540 ft 166 kts 31°
2026-05-08 19:00 43.61044 -7.76691 3539 ft 164 kts 31°
2026-05-08 19:01 43.62035 -7.75907 3541 ft 164 kts 31°
2026-05-08 19:01 43.63031 -7.75118 3540 ft 164 kts 31°
2026-05-08 19:01 43.64027 -7.74331 3541 ft 165 kts 31°
2026-05-08 19:01 43.64928 -7.73372 3533 ft 164 kts 58°
2026-05-08 19:02 43.65197 -7.71924 3540 ft 159 kts 99°
2026-05-08 19:02 43.64794 -7.70539 3551 ft 156 kts 120°
2026-05-08 19:02 43.64386 -7.69146 3532 ft 156 kts 105°
2026-05-08 19:02 43.64241 -7.67662 3545 ft 156 kts 97°
2026-05-08 19:03 43.64174 -7.66160 3543 ft 157 kts 96°
2026-05-08 19:03 43.64118 -7.64639 3547 ft 160 kts 96°
2026-05-08 19:03 43.64055 -7.63116 3542 ft 161 kts 96°
2026-05-08 19:03 43.63992 -7.61570 3542 ft 160 kts 96°
2026-05-08 19:04 43.63929 -7.60028 3540 ft 161 kts 95°
2026-05-08 19:04 43.63867 -7.58493 3543 ft 160 kts 95°
2026-05-08 19:04 43.63803 -7.56976 3542 ft 156 kts 96°
2026-05-08 19:04 43.63738 -7.55481 3554 ft 156 kts 95°
2026-05-08 19:05 43.63676 -7.53974 3553 ft 158 kts 96°
2026-05-08 19:05 43.63612 -7.52456 3554 ft 158 kts 96°
2026-05-08 19:05 43.63546 -7.50937 3551 ft 158 kts 96°
2026-05-08 19:05 43.63484 -7.49416 3552 ft 158 kts 96°
2026-05-08 19:06 43.63419 -7.47895 3550 ft 158 kts 96°
2026-05-08 19:06 43.63355 -7.46380 3557 ft 158 kts 95°
2026-05-08 19:06 43.63291 -7.44866 3553 ft 158 kts 96°
2026-05-08 19:06 43.63248 -7.43864 3557 ft 158 kts 96°
2026-05-08 19:07 43.63182 -7.42340 3558 ft 160 kts 96°
2026-05-08 19:07 43.63094 -7.40310 3553 ft 160 kts 96°
2026-05-08 19:07 43.63025 -7.38745 3348 ft 163 kts 95°
2026-05-08 19:07 43.62957 -7.37188 3152 ft 163 kts 95°
2026-05-08 19:08 43.62912 -7.36126 3014 ft 164 kts 96°
2026-05-08 19:08 43.62846 -7.34570 2809 ft 164 kts 96°
2026-05-08 19:08 43.62778 -7.33035 2603 ft 156 kts 96°
2026-05-08 19:08 43.62715 -7.31604 2554 ft 141 kts 95°
2026-05-08 19:09 43.62659 -7.30311 2547 ft 129 kts 96°
2026-05-08 19:09 43.62607 -7.29112 2545 ft 121 kts 95°
2026-05-08 19:09 43.62557 -7.27977 2542 ft 116 kts 97°
2026-05-08 19:09 43.62509 -7.26893 2548 ft 111 kts 96°
2026-05-08 19:10 43.62461 -7.25839 2546 ft 109 kts 97°
2026-05-08 19:10 43.62415 -7.24795 2548 ft 108 kts 96°
2026-05-08 19:10 43.62368 -7.23761 2548 ft 107 kts 96°
2026-05-08 19:10 43.62326 -7.22736 2548 ft 108 kts 93°
2026-05-08 19:11 43.62564 -7.21768 2553 ft 111 kts 66°
2026-05-08 19:11 43.62948 -7.20751 2558 ft 125 kts 65°
2026-05-08 19:11 43.63364 -7.19654 2563 ft 134 kts 65°
2026-05-08 19:11 43.63808 -7.18484 2559 ft 139 kts 64°
2026-05-08 19:12 43.64264 -7.17285 2555 ft 142 kts 65°
2026-05-08 19:12 43.64726 -7.16069 2559 ft 144 kts 65°
2026-05-08 19:12 43.65195 -7.14835 2565 ft 146 kts 64°
2026-05-08 19:12 43.65662 -7.13603 2554 ft 147 kts 64°
2026-05-08 19:13 43.66139 -7.12347 2560 ft 148 kts 64°
2026-05-08 19:13 43.66619 -7.11085 2561 ft 149 kts 65°
2026-05-08 19:13 43.67100 -7.09817 2557 ft 149 kts 64°
2026-05-08 19:13 43.67580 -7.08554 2559 ft 148 kts 65°
2026-05-08 19:14 43.68059 -7.07292 2561 ft 148 kts 64°
2026-05-08 19:14 43.68536 -7.06033 2548 ft 148 kts 64°
2026-05-08 19:14 43.69017 -7.04762 2447 ft 150 kts 65°
2026-05-08 19:14 43.69498 -7.03489 2349 ft 149 kts 65°
2026-05-08 19:15 43.69975 -7.02225 2242 ft 147 kts 64°
2026-05-08 19:15 43.70448 -7.00977 2142 ft 147 kts 65°
2026-05-08 19:15 43.70915 -6.99744 2063 ft 145 kts 65°
2026-05-08 19:15 43.71371 -6.98540 2051 ft 138 kts 64°
2026-05-08 19:16 43.71807 -6.97388 2052 ft 134 kts 65°
2026-05-08 19:16 43.72236 -6.96254 2051 ft 132 kts 64°
2026-05-08 19:16 43.72660 -6.95132 2052 ft 131 kts 65°
2026-05-08 19:16 43.73083 -6.94015 2051 ft 131 kts 66°
2026-05-08 19:17 43.73505 -6.92894 2060 ft 131 kts 64°
2026-05-08 19:17 43.73927 -6.91777 2047 ft 130 kts 65°
2026-05-08 19:17 43.74345 -6.90669 2052 ft 130 kts 66°
2026-05-08 19:17 43.74761 -6.89568 2049 ft 129 kts 65°
2026-05-08 19:18 43.75173 -6.88474 2049 ft 128 kts 66°
2026-05-08 19:18 43.75493 -6.87330 2050 ft 128 kts 81°
2026-05-08 19:18 43.75499 -6.86122 2066 ft 126 kts 103°
2026-05-08 19:18 43.75277 -6.84947 2060 ft 126 kts 108°
2026-05-08 19:19 43.75022 -6.83787 2060 ft 126 kts 108°
2026-05-08 19:19 43.74764 -6.82645 2057 ft 126 kts 108°
2026-05-08 19:19 43.74502 -6.81498 2056 ft 125 kts 108°
2026-05-08 19:19 43.74240 -6.80351 2055 ft 125 kts 108°
2026-05-08 19:20 43.73976 -6.79198 2050 ft 126 kts 108°
2026-05-08 19:20 43.73802 -6.78437 2053 ft 125 kts 108°
2026-05-08 19:20 43.73450 -6.76897 2048 ft 125 kts 108°
2026-05-08 19:20 43.73188 -6.75753 2048 ft 123 kts 108°
2026-05-08 19:21 43.72924 -6.74602 2059 ft 129 kts 108°
2026-05-08 19:21 43.72648 -6.73390 2056 ft 134 kts 108°
2026-05-08 19:21 43.72361 -6.72144 2061 ft 138 kts 109°
2026-05-08 19:21 43.72071 -6.70879 2060 ft 141 kts 108°
2026-05-08 19:22 43.71772 -6.69580 2066 ft 143 kts 108°
2026-05-08 19:22 43.71472 -6.68272 2064 ft 143 kts 108°
2026-05-08 19:22 43.71169 -6.66957 2065 ft 143 kts 109°
2026-05-08 19:22 43.70867 -6.65645 2065 ft 143 kts 108°
2026-05-08 19:23 43.70567 -6.64343 2070 ft 141 kts 108°
2026-05-08 19:23 43.70272 -6.63063 2068 ft 138 kts 108°
2026-05-08 19:23 43.69982 -6.61801 2068 ft 137 kts 108°
2026-05-08 19:23 43.69693 -6.60549 2068 ft 136 kts 108°
2026-05-08 19:24 43.69409 -6.59314 2065 ft 136 kts 108°
2026-05-08 19:24 43.69122 -6.58072 2067 ft 135 kts 108°
2026-05-08 19:24 43.68836 -6.56833 2070 ft 136 kts 109°
2026-05-08 19:24 43.68549 -6.55593 2064 ft 135 kts 108°
2026-05-08 19:25 43.68263 -6.54356 2064 ft 135 kts 108°
2026-05-08 19:25 43.67977 -6.53119 2067 ft 135 kts 108°
2026-05-08 19:25 43.67692 -6.51887 2067 ft 134 kts 108°
2026-05-08 19:25 43.67406 -6.50653 2069 ft 135 kts 108°
2026-05-08 19:26 43.67120 -6.49418 2068 ft 135 kts 108°
2026-05-08 19:26 43.66833 -6.48181 2071 ft 136 kts 108°
2026-05-08 19:26 43.66545 -6.46938 2068 ft 135 kts 108°
2026-05-08 19:26 43.66258 -6.45697 2066 ft 136 kts 107°
2026-05-08 19:27 43.65970 -6.44460 2067 ft 135 kts 107°
2026-05-08 19:27 43.65683 -6.43230 2061 ft 134 kts 107°
2026-05-08 19:27 43.65401 -6.42014 2060 ft 135 kts 107°
2026-05-08 19:27 43.65113 -6.40780 2016 ft 138 kts 107°
2026-05-08 19:28 43.64820 -6.39519 2003 ft 137 kts 107°
2026-05-08 19:28 43.64530 -6.38275 2007 ft 135 kts 106°
2026-05-08 19:28 43.64245 -6.37049 2003 ft 133 kts 107°
2026-05-08 19:28 43.63961 -6.35830 2008 ft 133 kts 107°
2026-05-08 19:29 43.63678 -6.34616 2004 ft 132 kts 107°
2026-05-08 19:29 43.63395 -6.33405 2001 ft 132 kts 107°
2026-05-08 19:29 43.63114 -6.32204 2007 ft 131 kts 107°
2026-05-08 19:29 43.62835 -6.31009 1998 ft 128 kts 107°
2026-05-08 19:30 43.62573 -6.29893 2007 ft 119 kts 107°
2026-05-08 19:30 43.62326 -6.28839 2016 ft 109 kts 107°
2026-05-08 19:30 43.62105 -6.27895 1999 ft 98 kts 106°
2026-05-08 19:30 43.61918 -6.27097 1990 ft 80 kts 106°
2026-05-08 19:31 43.61756 -6.26393 1999 ft 76 kts 106°
2026-05-08 19:31 43.61594 -6.25698 2007 ft 77 kts 105°
2026-05-08 19:31 43.61428 -6.24982 2012 ft 79 kts 107°
2026-05-08 19:31 43.61255 -6.24250 2016 ft 81 kts 107°
2026-05-08 19:32 43.61076 -6.23492 2012 ft 84 kts 106°
2026-05-08 19:32 43.60896 -6.22723 2006 ft 84 kts 106°
2026-05-08 19:32 43.60716 -6.21956 2006 ft 84 kts 107°
2026-05-08 19:32 43.60535 -6.21189 2010 ft 84 kts 106°
2026-05-08 19:33 43.60354 -6.20419 2011 ft 84 kts 107°
2026-05-08 19:33 43.60172 -6.19643 2009 ft 85 kts 107°
2026-05-08 19:33 43.59990 -6.18868 2008 ft 84 kts 106°
2026-05-08 19:33 43.59812 -6.18111 2005 ft 84 kts 107°
2026-05-08 19:34 43.59630 -6.17341 2018 ft 84 kts 105°
2026-05-08 19:34 43.59451 -6.16576 2008 ft 83 kts 105°
2026-05-08 19:34 43.59272 -6.15816 2014 ft 83 kts 107°
2026-05-08 19:34 43.59090 -6.15045 1977 ft 86 kts 105°
2026-05-08 19:35 43.58902 -6.14242 1873 ft 90 kts 107°
2026-05-08 19:35 43.58706 -6.13416 1761 ft 91 kts 106°
2026-05-08 19:35 43.58512 -6.12593 1629 ft 89 kts 106°
2026-05-08 19:35 43.58322 -6.11789 1501 ft 89 kts 106°
2026-05-08 19:36 43.58130 -6.10973 1387 ft 90 kts 106°
2026-05-08 19:36 43.57935 -6.10146 1267 ft 93 kts 106°
2026-05-08 19:36 43.57733 -6.09285 1138 ft 95 kts 107°
2026-05-08 19:36 43.57526 -6.08409 1006 ft 96 kts 107°
2026-05-08 19:37 43.57319 -6.07535 876 ft 96 kts 107°
2026-05-08 19:37 43.57111 -6.06655 742 ft 96 kts 106°
2026-05-08 19:37 43.56905 -6.05781 619 ft 96 kts 106°
2026-05-08 19:37 43.56704 -6.04909 544 ft 94 kts 107°
2026-05-08 19:38 43.56491 -6.04097 716 ft 90 kts 111°
2026-05-08 19:38 43.56231 -6.03311 962 ft 89 kts 117°
2026-05-08 19:38 43.55926 -6.02477 1199 ft 108 kts 118°
2026-05-08 19:38 43.55406 -6.01638 1433 ft 123 kts 137°
2026-05-08 19:39 43.54683 -6.00961 1745 ft 125 kts 150°
2026-05-08 19:39 43.54059 -6.00180 2032 ft 123 kts 126°
2026-05-08 19:39 43.53499 -5.99249 2073 ft 128 kts 130°
2026-05-08 19:39 43.52938 -5.98337 2225 ft 125 kts 128°
2026-05-08 19:40 43.52392 -5.97363 2269 ft 128 kts 126°
2026-05-08 19:40 43.51863 -5.96403 2378 ft 128 kts 127°
2026-05-08 19:40 43.51260 -5.95470 2405 ft 128 kts 131°
2026-05-08 19:40 43.50595 -5.94597 2499 ft 135 kts 142°
2026-05-08 19:41 43.49762 -5.93938 2581 ft 141 kts 152°
2026-05-08 19:41 43.48829 -5.93453 2582 ft 145 kts 161°
2026-05-08 19:41 43.48036 -5.92644 2415 ft 152 kts 112°
2026-05-08 19:41 43.48142 -5.91271 2207 ft 153 kts 62°
2026-05-08 19:42 43.48906 -5.90263 1929 ft 152 kts 27°
2026-05-08 19:42 43.49838 -5.89940 1509 ft 123 kts 10°
2026-05-08 19:42 43.50545 -5.89781 1304 ft 85 kts
2026-05-08 19:42 43.51120 -5.90054 1155 ft 91 kts 342°
2026-05-08 19:43 43.51687 -5.90361 1048 ft 86 kts 322°
2026-05-08 19:43 43.52179 -5.90827 968 ft 86 kts 322°
2026-05-08 19:43 43.52668 -5.91304 915 ft 83 kts 324°
2026-05-08 19:43 43.53100 -5.91805 884 ft 79 kts 315°
2026-05-08 19:44 43.53485 -5.92333 872 ft 80 kts 316°
2026-05-08 19:44 43.53865 -5.92865 854 ft 77 kts 297°
2026-05-08 19:44 43.54046 -5.93563 867 ft 76 kts 287°
2026-05-08 19:44 43.54185 -5.94262 838 ft 77 kts 286°
2026-05-08 19:45 43.54330 -5.94966 870 ft 76 kts 285°
2026-05-08 19:45 43.54510 -5.95663 859 ft 76 kts 290°
2026-05-08 19:45 43.54680 -5.96345 891 ft 74 kts 285°
2026-05-08 19:45 43.54841 -5.97022 925 ft 76 kts 289°
2026-05-08 19:46 43.55003 -5.97719 955 ft 77 kts 290°
2026-05-08 19:46 43.55167 -5.98429 955 ft 80 kts 289°
2026-05-08 19:46 43.55535 -5.99962 814 ft 86 kts 289°
2026-05-08 19:47 43.55715 -6.00752 681 ft 86 kts 284°
2026-05-08 19:47 43.55898 -6.01532 571 ft 83 kts 287°
2026-05-08 19:47 43.56078 -6.02279 452 ft 80 kts 288°
2026-05-08 19:47 43.56250 -6.02963 423 ft 69 kts 288°
2026-05-08 19:48 43.56367 -6.03478 416 ft 43 kts 291°
2026-05-08 19:48 43.56450 -6.03781 413 ft 27 kts 284°
2026-05-08 19:48 43.56484 -6.03983 414 ft 19 kts 282°
2026-05-08 19:48 43.56495 -6.04145 415 ft 15 kts 264°
2026-05-08 19:49 43.56475 -6.04287 415 ft 14 kts 239°
2026-05-08 19:49 43.56423 -6.04349 416 ft 10 kts 159°
2026-05-08 19:49 43.56387 -6.04271 416 ft 10 kts 107°
2026-05-08 19:49 43.56361 -6.04174 416 ft 11 kts 109°
2026-05-08 19:50 43.56339 -6.04064 416 ft 12 kts 109°
2026-05-08 19:50 43.56309 -6.03951 416 ft 13 kts 107°
2026-05-08 19:50 43.56282 -6.03825 416 ft 14 kts 104°
2026-05-08 19:50 43.56252 -6.03691 416 ft 15 kts 111°
2026-05-08 19:51 43.56214 -6.03557 416 ft 15 kts 108°
2026-05-08 19:51 43.56183 -6.03418 416 ft 16 kts 105°
2026-05-08 19:51 43.56154 -6.03272 416 ft 16 kts 110°
2026-05-08 19:51 43.56116 -6.03129 414 ft 16 kts 109°
2026-05-08 19:52 43.56081 -6.02982 416 ft 16 kts 104°
2026-05-08 19:52 43.56003 -6.02908 416 ft 15 kts 162°
2026-05-08 19:52 43.55957 -6.02782 416 ft 15 kts 114°
2026-05-08 19:52 43.55922 -6.02716 415 ft 0 kts 180°